Location: Darlington Observatory
(36.4817°N, 105.8156°W)
Time: 08:04:52
(UTC-06:00)

NOSS 3-3 (A) - Visible Passes

Search period start: 02 September 2014 00:00
Search period end: 12 September 2014 00:00
Orbit: 975 x 1238 km, 63.4° (Epoch: 31 August)

Date Brightness Start Highest point End Pass type
(mag) Time Alt. Az. Time Alt. Az. Time Alt. Az.
02 Sep 6.6 04:31:19 10° N 04:36:55 23° NE 04:42:43 10° E visible
02 Sep 4.5 20:11:50 10° S 20:17:39 39° ESE 20:23:41 10° NE visible
02 Sep 5.5 22:02:38 10° WSW 22:08:31 37° NW 22:14:43 10° NNE visible
03 Sep 7.0 03:47:22 10° N 03:51:39 16° NE 03:56:02 10° ENE visible
03 Sep 5.0 05:36:43 10° NNW 05:44:03 64° NE 05:51:41 10° SE visible
03 Sep 4.7 21:17:24 10° SW 21:23:41 58° NW 21:30:19 10° NNE visible
03 Sep 6.9 23:13:09 10° WNW 23:16:13 13° NNW 23:19:23 10° N visible
04 Sep 7.1 03:04:03 10° N 03:06:11 11° NNE 03:08:21 10° NE visible
04 Sep 5.6 04:52:18 10° NNW 04:59:14 43° NE 05:06:26 10° ESE visible
04 Sep 4.0 20:32:38 10° SSW 20:39:01 88° ESE 20:45:45 10° NNE visible
04 Sep 6.5 22:26:21 10° W 22:30:54 19° NW 22:35:38 10° N visible
05 Sep 6.2 04:08:02 10° NNW 04:14:15 29° NE 04:20:41 10° ESE visible
05 Sep 4.5 05:58:23 10° NW 06:05:44 66° WSW 06:13:21 10° SSE visible
05 Sep 4.2 19:48:22 10° S 19:54:31 54° ESE 20:00:58 10° NE visible
05 Sep 6.0 21:40:17 10° WSW 21:45:46 29° NW 21:51:31 10° NNE visible
06 Sep 6.6 03:23:56 10° N 03:29:06 20° NE 03:34:25 10° E visible
06 Sep 4.5 05:13:42 10° NNW 05:21:08 82° ENE 05:28:52 10° SSE visible
06 Sep 5.3 20:54:45 10° WSW 21:00:49 43° NW 21:07:13 10° NNE visible
06 Sep 7.0 22:52:18 10° NW 22:53:47 11° NNW 22:55:16 10° NNW visible
07 Sep 6.9 02:40:08 10° N 02:43:45 14° NNE 02:47:27 10° ENE visible
07 Sep 5.1 04:29:11 10° NNW 04:36:24 55° NE 04:43:54 10° SE visible
07 Sep 4.5 20:09:41 10° SW 20:16:03 69° NW 20:22:46 10° NNE visible
07 Sep 6.8 22:04:36 10° WNW 22:08:20 15° NW 22:12:11 10° N visible
08 Sep 5.7 03:44:49 10° NNW 03:51:31 37° NE 03:58:28 10° ESE visible
08 Sep 4.6 05:35:34 10° NW 05:42:41 50° WSW 05:50:02 10° S visible
08 Sep 6.4 21:18:08 10° W 21:23:05 22° NW 21:28:15 10° N visible
09 Sep 6.3 03:00:36 10° N 03:06:28 25° NE 03:12:32 10° E visible
09 Sep 4.3 04:50:44 10° NW 04:58:09 78° WSW 05:05:51 10° SSE visible
09 Sep 5.8 20:32:16 10° WSW 20:38:01 33° NW 20:44:04 10° NNE visible
10 Sep 6.6 02:16:36 10° N 02:21:15 18° NE 02:26:01 10° ENE visible
10 Sep 4.6 04:06:07 10° NNW 04:13:30 71° ENE 04:21:11 10° SE visible
10 Sep 5.4 05:58:23 10° WNW 06:03:55 23° WSW 06:09:35 10° SSW visible
10 Sep 5.1 19:46:55 10° SW 19:53:08 52° NW 19:59:42 10° NNE visible
10 Sep 6.9 21:43:15 10° NW 21:45:50 12° NNW 21:48:29 10° N visible
11 Sep 6.9 01:33:02 10° N 01:35:50 12° NNE 01:38:40 10° NE visible
11 Sep 5.2 03:21:40 10° NNW 03:28:43 47° NE 03:36:03 10° SE visible
11 Sep 4.8 05:12:53 10° NW 05:19:35 37° WSW 05:26:29 10° S visible
11 Sep 6.7 20:56:13 10° WNW 21:00:28 18° NW 21:04:53 10° N visible
